Miscellaneous Local Product
Issued by NWS North Platte, NE

Home | Current Version | Previous Version | Graphics & Text | Print | Product List | Glossary On
Versions: 1 2 3 4 5 6 7 8 9 10 11 12 13 14 15 16 17 18 19 20 21 22 23 24 25 26 27 28 29 30 31 32 33 34 35 36 37 38 39 40 41 42 43 44 45 46 47 48 49 50
000
AXUS43 KLBF 270210
MISLBF


WESTERN AND NORTH CENTRAL NEBRASKA HOURLY WEATHER ROUNDUP
NATIONAL WEATHER SERVICE NORTH PLATTE NE
900 PM CDT SUN APR 26 2015

***STATIONS NOT REPORTING VARIABLES SUCH AS SKY/WEATHER OR
PRESSURE ARE PROVIDED BY THE NEBRASKA DEPARTMENT OF
ROADS...RAWS...AND APRS NETWORKS...AND ARE NOT UNDER
NATIONAL WEATHER SERVICE QUALITY CONTROL***

...OBSERVATIONS IN AND NEAR THE EASTERN PANHANDLE OF NEBRASKA...

CITY           SKY/WX    TMP DP  RH WIND       PRES   REMARKS
PINE RIDGE     CLOUDY    45  38  76 E3        30.07R
CHADRON        CLOUDY    50  40  68 SE13      30.06R
ALLIANCE       CLOUDY    45  39  79 SE3       30.06R
SIDNEY         CLOUDY    41  40  96 E12       30.06R FOG
$$

...OBSERVATIONS IN NORTH CENTRAL NEBRASKA...

CITY           SKY/WX    TMP DP  RH WIND       PRES   REMARKS
VALENTINE      PTCLDY    51  33  50 E7        30.06R
THEDFORD       PTCLDY    51  39  63 SE3       30.05R
AINSWORTH      PTCLDY    50  29  44 E6        30.06R
O`NEILL        CLEAR     55  32  41 E3        30.06R
ORD            CLEAR     50  36  58 E3        30.03R
BROKEN BOW     PTCLDY    48  38  68 E5        30.03R
$$

...OBSERVATIONS IN SOUTHWEST NEBRASKA AND FAR NORTHEAST COLORADO...

CITY           SKY/WX    TMP DP  RH WIND       PRES   REMARKS
WRAY           CLOUDY   N/A N/A N/A E9        30.04R HAZE
HOLYOKE        MOCLDY    46  43  87 E8        30.05R FOG
IMPERIAL       CLOUDY    47  43  86 NE9       30.03R
OGALLALA       CLOUDY    48  42  81 E7        30.05R
MCCOOK         CLOUDY    52  43  71 NE10      30.01R
LEXINGTON      CLOUDY    52  44  73 E6        30.04R
$$

...NORTH PLATTE AREA...

CITY           SKY/WX    TMP DP  RH WIND       PRES   REMARKS
$$

...SOME WEATHER OBSERVATIONS FROM AROUND THE REGION...

CITY           SKY/WX    TMP DP  RH WIND       PRES   REMARKS
DENVER         LGT RAIN  42  42 100 NE12      30.00R
LARAMIE        CLOUDY    39  33  79 SE9       30.00R WCI  33
CHEYENNE       CLOUDY    38  37  97 E12       30.03R FOG     WCI  30
SCOTTSBLUFF    CLOUDY    45  32  60 SE12      30.06R
RAPID CITY     CLOUDY    49  44  83 CALM      30.08R
PIERRE         CLOUDY    55  32  41 E5        30.06R
WINNER         FAIR      54  31  41 SE8       30.07R
SIOUX FALLS    PTCLDY    52  34  50 N6        30.06R
OMAHA          PTCLDY    57  34  41 NE8       30.03R
GRAND ISLAND   PTCLDY    48  39  71 E6        30.04R
KANSAS CITY    PTCLDY    56  38  50 E9        29.99R
WICHITA        CLOUDY    53  44  71 NE12      29.89R
HAYS           CLOUDY    48  37  66 NE13      29.99R
LIBERAL        CLOUDY    50  46  87 E9        29.95R
GOODLAND       CLOUDY    44  44 100 E13       30.04R FOG
$$



USA.gov is the U.S. government's official web portal to all federal, state and local government web resources and services.